www.pogodaiklimat.ru

Погода и климат >> Архив погоды >> Китай >> Внутренняя Монголия >> Гуайцзыху


ПОГОДА в Гуайцзыху

  • Прогноз погоды в Гуайцзыху
  • Монитор погоды в Гуайцзыху

АРХИВ ПОГОДЫ в Гуайцзыху

Время (UTC), дата Ветер
(напр.,м/с)
 
Видим.   Явления Облачность Т
(С)
Тd
(С)
f
(%)
Тe
(С)
Тes
(С)
Комфортность P
(гПа)
Po
(гПа)
Тmin
(С)
Tmax
(С)
R
(мм)
R24
(мм)
S
(см)
21 18.05 Ю 2 30 км н/о +1.4 -6.4 56 -1 -1 1028.0 912.2
00 19.05 Ю 1 30 км ясно +6.7 -5.6 41 +6 +10 1028.8 915.0
03 19.05 ЮВ 4 30 км ясно +11.0 -8.8 24 +9 +20 опасность
простуды
1028.7 916.5
06 19.05 В 4 30 км ясно +15.0 -16.4 10 +14 +27 опасность
простуды
1026.5 916.0 +0.7
09 19.05 В 6 30 км 1/1
[]
+17.5 -18.7 7 +17 +20 1023.3 914.1
12 19.05 В 5 30 км 1/1
[]
+15.5 -18.6 8 +15 +15 1022.4 912.6
18 19.05 ЮВ 2 30 км ?/? +6.7 -14.1 21 +6 +6 1022.4 909.3 +17.9
21 19.05 В 1 30 км н/о +4.4 -13.4 26 +4 +4 1021.3 907.4
00 20.05 В 1 30 км 1/1
[]
+10.7 -14.1 16 +11 +15 1020.7 909.3
03 20.05 С 3 30 км 4/4
[]
+18.3 -15.1 9 +18 +26 1018.8 910.3
06 20.05 С 2 30 км 9/9
[]
+22.1 -17.2 6 +20 +22 1016.8 909.9 +3.0
09 20.05 С 2 30 км 8/8
[]
+24.3 -17.8 5 +21 +23 комфорт 1014.5 908.6
12 20.05 З 1 30 км 9/9
[]
+22.1 -17.2 6 +20 +20 1013.2 906.6
18 20.05 Ю 4 30 км ?/? +12.6 -16.1 12 +11 +11 1013.5 903.6 +24.9
21 20.05 Ю 6 30 км н/о +11.1 -15.4 14 +9 +9 1012.8 902.4
00 21.05 Ю 4 13 км ясно +18.1 -16.7 8 +18 +20 1013.0 905.1
03 21.05 З 4 30 км ясно +24.8 -17.4 5 +21 +32 комфорт 1012.7 907.1
06 21.05 З 6 30 км ясно +28.6 -17.4 4 +24 +32 комфорт 1010.4 906.3 +10.7
09 21.05 З 6 30 км ясно +30.3 -19.6 3 +26 +29 жарко 1007.8 904.5
12 21.05 С 3 30 км ясно +27.8 -15.3 5 +24 +24 комфорт 1006.4 902.5
18 21.05 Ю 7 30 км ?/? +19.1 -15.9 8 +18 +18 1005.6 898.8 +30.6
21 21.05 Ю 7 30 км н/о +18.5 -18.0 7 +18 +18 1005.2 898.3
00 22.05 Ю 9 7000 м ясно +24.5 -17.6 5 +21 +22 комфорт 1005.1 900.2
03 22.05 З 5 30 км ясно +30.7 -19.4 3 +26 +34 жарко 1005.0 902.1
06 22.05 З 3 30 км 1/1
[]
+33.1 -22.5 2 +28 +42 жарко 1002.4 900.6 +17.9
09 22.05 З 2 30 км 3/3
[]
+33.7 -22.1 2 +29 +35 жарко 999.7 898.3
12 22.05 С 3 15 км 4/4
[]
+30.6 -19.4 3 +26 +26 жарко 999.0 896.4
18 22.05 Ю 7 30 км ?/? +21.5 -22.3 4 +19 +19 999.3 894.0 +34.1
21 22.05 З 6 30 км н/о +18.9 -19.5 6 +18 +18 999.5 893.3
00 23.05 Ю 6 30 км 9/9
[]
+23.6 -18.3 5 +21 +21 комфорт 999.2 894.6
03 23.05 З 7 25 км 9/9
[]
+29.4 -16.8 4 +25 +25 комфорт 1000.2 897.4
06 23.05 З 4 29 км 9/9
[]
+33.0 -11.6 5 +28 +30 жарко 998.2 896.8 +18.9
09 23.05 В 4 28 км 9/9
[]
+33.6 -11.2 5 +29 +30 жарко 996.6 895.5
12 23.05 В 1 27 км 9/9
[]
+31.8 -10.2 6 +27 +27 жарко 995.9 893.7
18 23.05 З 6 22 км ?/? +24.3 -10.6 9 +22 +22 комфорт 996.0 892.0 +34.1
21 23.05 З 10 3800 м мгла н/о +20.5 +0.4 26 +20 +20 997.4 892.0
00 24.05 З 10 8000 м пыльный позёмок ясно +19.5 -1.0 25 +19 +19 1000.0 893.9
03 24.05 З 8 2200 м пыльный позёмок 9/9
[]
+23.9 -3.4 16 +22 +22 комфорт 1001.4 896.7
06 24.05 З 9 3300 м пыльный позёмок 9/9
[]
+29.7 -3.9 11 +26 +27 жарко 998.8 896.3 +18.3
09 24.05 З 11 4200 м пыльный позёмок 9/9
[]
+30.0 -4.9 10 +26 +26 жарко 998.7 896.3
12 24.05 З 9 4300 м пыльный позёмок 9/9
[]
+26.0 -12.5 7 +23 +23 комфорт 1000.9 896.9
18 24.05 З 4 19 км ?/? +18.6 -16.3 8 +18 +18 1004.4 897.6 +31.1
21 24.05 З 5 24 км н/о +15.8 -13.5 12 +15 +15 1005.2 897.3
00 25.05 З 7 24 км 9/9
[]
+16.5 -12.0 13 +15 +15 1007.2 899.3
03 25.05 З 6 22 км 9/9
[]
+20.6 -13.4 9 +19 +20 1008.4 901.8
06 25.05 З 8 7000 м 9/9
[]
+24.0 -18.0 5 +21 +21 комфорт 1007.3 902.0 +14.5
09 25.05 СЗ 9 15 км ясно +25.5 -14.7 6 +22 +23 комфорт 1006.2 901.5
12 25.05 З 11
{18}
н/о пыльный позёмок 9/9
[]
+21.1 -14.4 8 +20 +20 1009.5 903.0

 

Местоположение метеостанции Гуайцзыху (Внутренняя Монголия, Китай): широта 41.37 долгота 102.36 высота над уровнем моря 960 м.

В архиве по умолчанию представлена погода в Гуайцзыху за последнюю неделю. Архивные данные за месяц целиком и за предыдущие месяцы, начиная с января 2011 года, Вы можете получить, выбрав интересующий диапазон дат из раскрывающегося списка и нажав кнопку "Ввод!".


*Определитесь, кто Вы:
робот инопланетянин человек

Внимание! Время в таблицах - всемирное. Для получения местного времени необходимо прибавить поправку, которая равна 8 ч.

Смотрите также архив погоды в соседних городах и на ближайших метеорологических станциях:

Погода в Эдзин-Ци (Внутренняя Монголия, Китай) (126 км)
Погода в Баян Мод (Внутренняя Монголия, Китай) (192 км)
Погода в Шинэ Уса (Монголия) (246 км)
Погода в Даланзадгаде (Монголия) (298 км)
Погода в Миньцине (Цинхай, Китай) (311 км)
Погода в Чжанъе (Цинхай, Китай) (317 км)
Погода в Баинвендурьере (Внутренняя Монголия, Китай) (335 км)
Погода в Джартае (Внутренняя Монголия, Китай) (337 км)
Погода в Богде (Монголия) (365 км)
Погода в Цзюцюан (Ганьсу, Китай) (373 км)

Пояснения к столбцам:

Ветер - указаны скорость ветра в м/с - средняя за 10 мин, порывы в срок и между сроками (в фигурных скобках) и направление, откуда дует ветер: С - северный, СВ - северо-восточный, В - восточный, ЮВ - юго-восточный, Ю - южный, ЮЗ - юго-западный, З - западный, СЗ - северо-западный.
Видимость - горизонтальная дальность видимости в метрах или километрах. При видимости от 1 до 10 км при отсутствии осадков обычно наблюдается дымка, при ухудшении видимости до 1 км и менее - туман. В сухую погоду видимость может ухудшаться дымом, пылью или мглою.
Явления - указаны атмосферные явления, наблюдавшиеся в срок или в последний час перед сроком; фигурными скобками обозначены явления, наблюдавшиеся между сроками (за 1-3 часа до срока); квадратными скобками обозначены град или гололедные отложения с указанием их диаметра в мм.
Облачность - указаны через наклонную черту общая и нижняя облачность в баллах и высота нижней границы облаков в метрах; квадратными скобками обозначены формы облаков: Ci - перистые, Cs - перисто-слоистые, Cc - перисто-кучевые, Ac - высококучевые, As - высокослоистые, Sc - слоисто-кучевые, Ns - слоисто-дождевые, Cu - кучевые, Cb - кучево-дождевые. Подробнее классификацию облаков см. в Атласе облаков (PDF).
T - Температура воздуха - температура, измеренная на высоте 2 м над землей.
Td - Температура точки росы - температура, при понижении до которой содержащийся в воздухе водяной пар достигнет насыщения.
f - Относительная влажность воздуха - влажноcть воздуха, измеренная на высоте 2 м над землей.
Te - Эффективная температура - температура, которую ощущает одетый по сезону человек в тени. Характеристика душности погоды. При расчете учитывается влияние влажности воздуха и скорости ветра на теплоощущения человека.
Tes - Эффективная температура на солнце - температура, которую ощущает человек, с поправкой на солнечный нагрев. Характеристика знойности погоды. Зависит от высоты солнца над горизонтом, облачности и скорости ветра. Ночью, в пасмурную погоду, а также при ветре 12 м/с и более поправка равна нулю.
P - Атмосферное давление - приведенное к уровню моря атмосферное давление.
Po - Атмосферное давление - измеренное на уровне метеостанции атмосферное давление.
Tmin - Минимальная температура - минимум температуры воздуха на высоте 2 м над землей.
Tmax - Максимальная температура - максимум температуры воздуха на высоте 2 м над землей.
R - Количество осадков - Количество выпавших осадков за период времени, мм. При наведении курсора мыши на число - период времени, за который выпало указанное количество осадков.
R24 - Количество осадков - Количество выпавших осадков за 24 часа, мм.
S - Снежный покров - Высота снежного покрова, см. При наведении курсора мыши на число - состояние снежного покрова и степень покрытия местности в баллах.